Location: *
(2.5500°S, 65.9667°W)
Time: 12:46:43
(UTC+00:00)

Cosmos 1726 Rocket - Pass Details

Date: 26 October 2021
Orbit: 601 x 630 km, 82.5° (Epoch: 29 November)

Event Time Altitude Azimuth Distance (km) Brightness Sun altitude
Rises 22:58:08 0° 183° (S) 2,905 7.2 -11.7°
Reaches altitude 10° 23:00:22 10° 182° (S) 1,999 6.4 -12.2°
Maximum altitude 23:04:48 83° 94° (E) 636 3.5 -13.3°
Drops below altitude 10° 23:09:14 10° 6° (N) 1,998 6.0 -14.4°
Sets 23:11:28 0° 5° (N) 2,903 6.8 -14.9°
